User: anonymous   Login
Location: Chiroubles
(46.1812°N, 4.6660°E)
Time: 00:23:04
(UTC+00:00)
Language:

Cosmos 1500 - Orbit

View from above orbital plane
View from above orbital plane
View from above satellite
View from above satellite

Ground track
Ground track

The orbit data is extracted from the following two-line orbital elements,

1 14372U 83099A   20292.89139846 +.00000820 +00000-0 +37630-4 0  9992
2 14372 082.5175 216.8388 0015471 155.5187 268.9733 15.18884573022533
Epoch (UTC): 18 October 2020 21:23:36
Eccentricity: 0.0015471
inclination: 82.5175°
perigee height: 498 km
apogee height: 520 km
right ascension of ascending node: 216.8388°
argument of perigee: 155.5187°
revolutions per day: 15.18884573
mean anomaly at epoch: 268.9733°
orbit number at epoch: 2253

The dashed part of the orbit path shows where the satellite is in the earth's shadow,  

DLR